GFSWCAN_prec_radar_021.txt.gz
Reflectivity
-20 -20 -20 -20 -20 -20 -20 -20 -20 -20 -20 -20 -20 -20 -20 -20 -20 -6 -20 -20 18 14 -20 -16 -20 -20 -20 -12 6 -20 -20 -20 -20 -20 3 -20 -20 -15 -20 -20 -20 -19 13 13 -19 -19 -20 -20 -20 -20 -20 -20 -20 -20
-20 -20 -20 -20 -20 -20 -20 -20 -20 -20 -20 -20 -20 -1 -4 -18 -20 -11 2 12 5 14 -8 -20 -20 -20 -20 -20 -17 -14 -17 -18 -14 -18 26 19 30 16 -20 -20 -20 9 -3 10 -13 -20 -20 -20 -1 15 -16 -20 -20 -20
-20 -20 -20 -20 -20 -20 -20 -20 -20 -20 -20 -19 -20 -0 10 3 -20 20 -20 -20 -17 13 -6 -20 -20 -20 -20 -20 -20 3 14 1 12 21 30 30 17 18 22 -20 -13 -20 24 -18 12 -19 -20 -20 4 -1 -20 -20 -20 -20
-20 -20 -20 -20 -20 -20 -20 -20 -20 -20 -20 0 -19 -1 -1 9 11 15 -2 -20 -4 -5 19 -20 -20 -20 -20 -19 -20 -20 -16 -3 21 29 29 25 17 20 30 25 21 24 18 -15 4 8 5 -11 -20 24 3 -1 -20 -20
-20 -20 -20 -20 -20 -20 -20 -20 -20 -20 -20 -18 4 8 9 8 12 10 -19 -20 -20 -8 -2 -14 -20 -20 -20 -16 3 -20 -20 -15 -20 1 4 6 19 34 31 16 18 39 -10 25 29 8 -6 -4 -18 -15 18 16 21 23
-20 -20 -20 -20 -20 -20 -20 -20 -20 -20 -20 -15 9 15 9 5 11 -20 -20 -20 -20 12 24 -4 -20 -20 -20 -20 -20 -20 -20 -20 -19 -20 -20 -9 21 39 27 35 15 34 17 25 26 7 -6 29 47 39 26 15 13 9
-20 -20 -20 -20 -20 -20 -20 -20 -20 -20 -3 2 4 7 6 4 16 24 24 4 21 26 28 18 4 7 -11 -20 -20 -20 -20 -20 -20 -20 -10 11 28 37 36 38 40 5 7 29 27 9 -7 33 34 20 -2 -20 -20 -20
-20 -20 -20 -20 -20 -20 -20 -20 -20 -20 -20 -5 -15 -1 -5 0 9 6 25 30 25 28 32 29 26 27 2 -20 -20 -20 -20 -20 -20 8 19 29 28 32 38 39 45 42 33 27 21 -0 9 25 19 6 5 -20 -20 -20
-20 -20 -20 -20 -20 -20 -20 -20 -20 -20 -20 -20 -20 21 -4 5 7 20 32 31 37 33 35 31 27 21 27 18 12 10 7 22 14 15 23 37 34 37 33 24 39 47 26 23 25 -14 -1 -1 12 29 13 -20 -20 -20
-20 -20 -20 -20 -20 -20 -20 -20 -20 -20 -20 -20 -20 -2 -20 -20 -19 12 22 29 33 28 30 31 30 26 22 21 26 22 24 30 34 32 28 36 35 34 27 22 39 34 34 24 26 -20 11 29 -15 7 16 3 -20 -20
-20 -20 -20 -20 -20 -20 -20 -20 -20 -20 -20 -20 -20 -20 -20 -17 0 5 15 32 33 31 29 35 25 25 20 27 29 28 29 30 34 33 29 31 30 29 25 23 20 34 29 24 -10 29 39 31 7 -20 -20 -20 -20 -20
-20 -20 -20 -20 -20 -20 -20 -20 -20 -20 -20 -20 -8 -16 -20 -19 17 24 21 29 36 29 31 27 18 23 27 28 31 27 30 31 32 23 30 39 40 40 39 36 32 30 31 19 -11 -12 -8 -16 3 -2 -19 -19 -9 -17
-20 -20 -20 -20 -20 -20 -20 -20 -20 -20 -20 -20 -18 -20 2 -0 30 31 31 34 32 31 16 18 24 14 10 8 22 32 31 32 25 29 30 37 39 38 37 39 38 32 31 32 32 27 24 11 17 28 21 -9 -18 -12
-20 -20 -20 -20 -20 -20 -20 -20 -20 -20 -20 -20 -20 -20 13 33 34 30 23 25 21 -10 -3 -20 -19 -20 -20 -20 7 25 11 27 29 34 36 36 34 36 36 37 36 37 36 37 32 25 18 25 11 2 -20 -20 -20 -16
-20 -20 -20 -20 -20 -20 -20 -20 -20 -20 -20 -20 -20 -6 17 25 33 28 27 15 -2 -20 -19 -20 -14 -19 -20 -20 -20 -20 2 33 40 43 38 33 34 23 12 27 19 22 25 19 10 14 12 8 -14 2 -14 -13 -1 -17
-20 -20 -20 -20 -20 -20 -20 -20 -20 -20 -20 -19 -20 -18 11 -14 8 22 9 3 7 -9 -18 -20 -20 -20 -14 -9 -4 8 25 36 36 21 29 33 13 23 23 6 15 9 -13 -13 -0 5 -3 1 -4 1 -19 -20 5 12
-20 -20 -20 -20 -20 -20 -20 -20 -20 -20 -19 -19 9 -20 -20 -20 -20 -19 -15 20 26 21 13 0 -11 7 -1 12 29 35 32 29 23 16 15 -17 -20 -17 -0 -9 -4 -20 -20 -20 -20 -20 -20 3 -1 -20 -20 -20 -20 -20
-20 -20 -20 -20 -20 -20 -20 -20 -20 -20 6 -20 -20 -20 -20 -20 -20 -20 -20 -20 -9 1 8 5 -5 12 23 31 29 26 7 3 -11 -17 -3 -9 -20 -20 -20 -20 -20 -20 -20 -20 -20 -20 -20 -20 -20 -20 -20 -20 -20 -15
-20 -20 -20 -20 -20 -20 -20 -20 -20 2 9 -20 -20 -20 -20 -20 -20 -20 -20 -20 -20 -20 -20 -20 -14 19 31 -3 -8 -10 5 -5 -5 -8 -7 -15 -20 -20 -20 -20 -20 -20 -20 -20 -20 -20 -20 -20 -20 -20 -20 -20 -20 -20
-20 -20 -20 -20 -20 -20 -20 -20 -20 -20 -20 -20 -20 -20 -20 -20 -20 -20 -20 -20 -20 -20 -20 -20 -13 10 -5 -20 -20 -20 -20 -17 -18 -20 -20 -20 -20 -20 -20 -20 -20 -20 -20 -20 -20 -20 -20 -20 -20 -20 -20 -20 -20 -20
-20 -20 -20 -20 -20 -20 -20 -20 -20 -20 -20 -20 -20 -20 -20 -20 -20 -20 -20 -20 -20 -20 -20 -20 -20 -20 -20 -20 -20 -20 -20 -20 -20 -20 -20 -20 -20 -20 -20 -20 -20 -20 -20 -20 -20 -20 -20 -20 -20 -20 -20 -20 -20 -20
-20 -20 -20 -20 -20 -20 -20 -20 -20 -17 7 15 -20 -20 -20 -20 -20 -20 -20 -20 -20 -20 -20 -20 -20 -20 -20 -20 -20 -20 -20 -20 -20 -20 -20 -20 -19 -18 -18 -20 -20 -20 -20 -19 -19 -20 -20 -20 -20 -20 -20 -20 -20 -20
-20 -20 -20 -20 -20 -20 -20 -2 -10 1 11 -20 -20 -20 -20 -20 -20 -20 -20 -19 -20 -20 -20 -20 -20 -20 -20 -20 -20 -20 -20 -20 -20 -20 -20 -20 -20 -20 -20 -20 -20 -20 -20 -20 -20 -20 -20 -20 -20 -20 -20 -20 -20 -20
-20 -20 -20 -20 -20 -9 -17 -20 -20 -20 -20 -20 -20 -20 -20 0 -20 -20 -20 -20 -20 -20 -20 -20 -20 -20 -20 -20 -20 -20 -20 -20 -20 -20 -20 -20 -20 -20 -20 -20 -20 -20 -20 -20 -20 -20 -20 -20 -20 -20 -20 -20 -20 -20
-20 -20 -20 -20 -20 -20 -20 -20 -20 -20 -20 -20 -20 -20 -20 -20 -20 -20 -20 -20 -20 -20 -20 -20 -20 -20 -20 -20 -20 -20 -20 -20 -20 -20 -20 -20 -20 -20 -20 -20 -20 -20 -20 -20 -20 -20 -20 -20 -20 -20 -20 -20 -20 -20
-20 -20 -20 -20 -20 -20 -20 -20 -20 -20 -20 -17 -20 -20 -20 -20 -20 -20 -20 -20 -20 -20 -20 -20 -20 -20 -20 -20 -20 -20 -20 -20 -20 -20 -20 -20 -20 -20 -20 -20 -20 -20 -20 -20 -20 -20 -20 -20 -20 -20 -20 -20 -20 -20
-20 -20 -20 -20 -20 -20 -20 -20 -20 -20 -20 -20 -11 -20 -20 -20 -20 -20 -20 -20 -20 -19 -20 -20 -20 -20 -20 -20 -20 -20 -20 -20 -20 -20 -20 -20 -20 -20 -20 -20 -20 -20 -20 -20 -20 -20 -20 -20 -20 -20 -20 -20 -20 -20
-20 -20 -20 -20 -20 -20 -20 -20 -20 -20 -20 -20 -20 -20 -20 -20 -20 -20 -20 -20 -20 -20 -20 -20 -20 -20 -20 -20 -20 -20 -20 -20 -20 -20 -20 -20 -20 -20 -20 -20 -20 -20 -20 -20 -20 -20 -20 -20 -20 -20 -20 -20 -20 -20
-20 -20 -20 -20 -20 -20 -20 -20 -20 -20 -20 -20 -20 -20 -20 -20 -20 -20 -20 -20 -20 -20 -20 -20 -20 -20 -20 -20 -20 -20 -20 -20 -20 -20 -20 -20 -20 -20 -20 -20 -20 -20 -20 -20 -20 -20 -20 -20 -20 -20 -20 -20 -20 -20
-20 -20 -20 -20 -20 -20 -20 -20 -20 -20 -20 -20 -20 -20 -20 -20 -20 -20 -20 -20 -20 -20 -20 -20 -20 -20 -20 -20 -20 -20 -20 -20 -20 -20 -20 -20 -20 -20 -20 -20 -20 -20 -20 -20 -20 -20 -20 -20 -20 -20 -20 -20 -20 -20
-20 -20 -20 -20 -20 -20 -20 -20 11 20 18 -20 -20 -20 -20 -20 -20 -20 -20 -20 -20 -20 -20 -20 -20 -20 -20 -20 -20 -20 -20 -20 -20 -20 -20 -20 -20 -20 -20 -20 -20 -20 -20 -20 -20 -20 -20 -20 -20 -20 -20 -20 -20 -20
-20 -20 -20 -20 -20 17 -18 -20 -20 -20 -18 -20 -20 -19 -20 -20 -20 -20 -20 -20 -20 -20 -20 -20 -20 -20 -20 -20 -20 -20 -20 -20 -20 -20 -20 -20 -20 -20 -20 -20 -20 -20 -20 -20 -20 -20 -20 -20 -20 -20 -20 -20 -20 -20
-20 -20 -20 -20 -20 -20 -20 -20 -20 -20 -20 -20 -20 -20 -20 -20 -20 -20 -20 -20 -20 -20 -20 -20 -20 -20 -20 -20 -20 -20 -20 -20 -20 -20 -20 -20 -20 -20 -20 -20 -20 -20 -20 -20 -20 -20 -20 -20 -20 -20 -20 -20 -20 -20

GFSWCAN_prec_radar_024.txt.gz
Reflectivity
-20 -20 -20 -20 -20 -20 -20 -20 -20 -20 -20 -20 -20 -3 7 14 18 -3 -20 -20 14 9 -20 -20 -4 -15 -18 -8 -8 -19 -6 -20 -7 -0 -2 -0 -20 -20 -20 -20 -20 -20 -20 -20 -20 -20 -20 -20 -20 -20 -20 -20 -20 -20
-20 -20 -20 -20 -20 -20 -20 -20 -20 -20 -20 -19 -20 14 7 12 17 24 5 -20 -19 3 -1 -20 -20 -20 -20 -20 -18 -0 -19 -18 -20 -5 -3 -16 -17 23 -3 -2 -20 -20 -20 -20 -20 -20 -20 -20 -20 -20 -20 -20 -12 -20
-20 -20 -20 -20 -20 -20 -20 -20 -20 -20 -20 -20 -20 2 23 20 12 24 -9 -14 8 -5 -20 -20 -20 -20 -20 -20 -20 -6 0 -18 -2 5 24 22 12 -5 -12 16 17 -20 -20 -15 -14 -20 -20 -20 -20 -20 -20 -20 -3 -20
-20 -20 -20 -20 -20 -20 -20 -20 -20 -20 -20 -20 -13 3 9 14 19 18 15 -13 -2 16 2 -20 -20 -19 -18 -19 -20 -20 -20 -20 0 18 30 28 21 -5 10 4 -15 -20 -20 -20 -19 -20 25 -20 -20 -20 -20 -20 -1 -20
-20 -20 -20 -20 -20 -20 -20 -20 -20 -20 -20 -7 -1 7 12 16 23 26 21 2 -15 13 -17 -20 -20 -20 -20 -20 -20 -20 -20 -20 0 18 15 16 10 26 14 11 14 6 -20 -2 -17 -20 20 -14 -20 -20 -20 9 15 25
-20 -20 -20 -20 -20 -20 -20 -20 -20 -20 -20 -20 3 8 13 14 24 28 21 11 7 24 31 11 -20 -20 -20 -20 -20 -20 -19 15 3 7 -4 -16 14 29 25 6 -20 15 11 13 -20 -20 28 -13 -19 21 -20 22 24 23
-20 -20 -20 -20 -20 -20 -20 -20 -20 -20 -20 -19 12 8 6 10 19 31 30 26 28 30 33 19 -14 -18 17 -19 -20 -20 -12 2 8 -11 -10 -2 17 33 33 27 28 -3 -20 -8 -16 18 25 29 -11 6 -20 13 -11 20
-20 -20 -20 -20 -20 -20 -20 -20 -20 -20 -20 -15 9 -19 11 3 7 28 29 24 19 22 23 20 5 -20 -20 -20 -20 -20 4 11 18 26 31 34 29 34 34 34 28 19 3 4 7 33 30 28 -20 -20 -20 -1 -20 14
-20 -20 -20 -20 -20 -20 -20 -20 -20 -20 -20 -7 -20 -8 15 -18 -6 9 16 22 10 17 25 20 17 -15 -12 6 -2 -5 17 33 27 30 35 35 37 31 38 40 42 28 6 25 30 39 39 32 10 -9 14 26 39 34
-20 -20 -20 -20 -20 -20 -20 -20 -20 -20 -20 -20 -20 -14 0 -20 14 16 16 12 24 25 28 28 22 16 15 9 -4 18 18 26 31 34 28 37 31 30 42 39 37 20 42 12 13 26 38 21 28 1 33 43 30 22
-20 -20 -20 -20 -20 -20 -20 -20 -20 -5 -20 -20 -20 -11 -5 -20 -1 19 21 24 26 30 30 17 19 24 4 18 18 19 25 32 37 34 34 32 29 30 25 34 25 42 42 35 21 41 22 31 29 31 39 38 18 3
-8 9 4 -20 -20 -20 -20 -20 -20 -9 -20 -9 -11 10 -19 13 11 2 20 22 29 32 16 16 18 12 19 26 30 25 33 30 31 25 34 37 40 38 32 38 38 32 36 32 26 30 19 26 35 27 20 19 4 -15
13 8 -20 -20 -20 -20 -20 -20 -20 -18 -15 -19 -20 -17 18 7 13 24 30 17 -4 26 24 -18 -11 -3 12 19 22 24 29 28 21 28 29 41 36 33 32 32 31 39 35 26 20 31 32 28 29 22 11 8 9 5
1 -20 -20 -20 -20 -20 -20 -20 -20 -20 -20 -20 -10 19 30 31 31 31 14 9 14 -20 -7 -16 -8 -5 -5 -20 -2 7 14 11 30 29 39 32 27 29 33 34 35 37 38 37 37 36 37 27 17 10 25 29 12 0
-20 -20 -20 -20 -20 -20 -20 -20 -20 -20 -20 -20 -20 -8 20 27 31 24 8 9 19 4 11 4 -19 -20 -20 -20 -15 10 19 34 40 37 35 31 29 20 24 28 31 29 22 26 19 25 25 29 22 -1 14 6 -14 -14
-20 -20 -20 -20 -20 -20 -20 -20 -20 -20 -20 -16 -20 -7 -20 -20 -7 6 2 26 13 18 12 9 16 10 -17 -2 20 26 33 37 31 35 32 26 29 17 -9 -12 5 10 17 24 24 24 23 19 2 -6 12 13 -8 -20
-20 -20 -20 -20 -20 -20 -20 -20 -20 -20 -20 -20 -20 -20 -20 -20 -20 -20 -20 -20 -18 -20 -19 3 8 7 16 -2 24 35 32 26 18 -19 -19 -19 -19 1 10 -6 -19 -4 7 11 6 8 4 -5 14 13 14 10 13 4
-20 -20 -20 -20 -20 -20 -20 -20 -20 -20 -20 -20 -20 -20 -20 -20 -20 -20 -20 -20 -20 -20 -20 -20 -20 -18 7 26 33 30 30 27 17 18 -17 -20 -20 -20 -20 -20 -20 -20 -20 -20 -15 -16 -13 -9 -3 0 -3 -10 0 9
-20 -20 -20 -20 -20 -20 -20 -20 -20 -20 -20 -20 -20 -20 -20 -20 -20 -20 -20 -20 -20 -20 -20 -20 -20 -19 -7 -17 -8 8 29 19 -20 -20 -20 -20 -20 -20 -20 -20 -20 -20 -20 -20 -20 -20 -20 -16 -15 -20 -19 -9 -6 -8
-20 -20 -20 -20 -20 -20 -20 -20 -20 -20 -20 -20 -20 -20 -20 -20 -20 -20 -20 -20 -20 -20 -20 -20 -20 -20 -20 -20 -20 -20 -20 -20 -18 -11 -20 -19 -20 -16 -20 -20 -20 -20 -20 -20 -20 -20 -20 -20 -20 -20 -20 -20 -20 -20
-20 -20 -20 -20 -20 -20 -20 -20 -20 -20 -20 -20 -20 -20 -20 -20 -20 -20 -20 -20 -20 -20 -20 -20 -20 -20 -20 -20 -20 -20 -20 -20 -20 -20 -20 -20 -20 -20 -19 -9 -18 -20 -20 -20 -20 -20 -20 -20 -20 -20 -20 -20 -20 -20
-20 -20 -20 -20 -20 -20 -20 -20 -20 -20 -20 -20 -20 -19 -20 -20 -20 -20 -20 -20 -20 -20 -20 -20 -20 -20 -20 -20 -20 -20 -20 -20 -20 -20 -20 -20 -20 -20 -20 -20 -20 -20 -20 -20 -20 -20 -20 -20 -20 -20 -20 -20 -20 -20
-20 -20 -20 -20 -20 -20 -20 -20 -20 -20 -20 -20 -20 -20 -20 -20 -20 -20 -20 -20 -20 -20 -20 -20 -20 -20 -20 -20 -20 -20 -20 -20 -20 -20 -20 -20 -20 -20 -20 -20 -20 -20 -20 -20 -20 -20 -20 -20 -20 -20 -20 -20 -20 -20
-20 -20 -20 -20 -20 -8 -20 -20 -20 -20 -20 -20 -20 -20 -20 -17 -20 -20 -20 -20 -20 -20 -20 -20 -20 -20 -20 -20 -20 -20 -20 -20 -20 -20 -20 -20 -20 -20 -20 -20 -20 -20 -20 -20 -20 -20 -20 -20 -20 -20 -20 -20 -20 -20
-20 -20 -20 -20 -20 -20 -20 -20 -20 -20 -20 -20 -20 -20 -20 -20 -20 -20 -20 -20 -20 -20 -20 -20 -20 -20 -20 -20 -20 -20 -20 -20 -20 -20 -20 -20 -20 -20 -20 -20 -20 -20 -20 -20 -20 -20 -20 -20 -20 -20 -20 -20 -20 -20
-20 -20 -20 -20 -20 -20 -20 -20 -20 -20 -20 -20 -20 -20 -20 -20 -20 -20 -20 -20 -20 -20 -20 -20 -20 -20 -20 -20 -20 -20 -20 -20 -20 -20 -20 -20 -20 -20 -20 -20 -20 -20 -20 -20 -20 -20 -20 -20 -20 -20 -20 -20 -20 -20
-20 -20 -20 -20 -20 -20 -20 -20 -20 -20 -20 -20 -20 -20 -20 -20 -20 -20 -20 -20 -20 -20 -20 -20 -20 -20 -20 -20 -20 -20 -20 -20 -20 -20 -20 -20 -20 -20 -20 -20 -20 -20 -20 -20 -20 -20 -20 -20 -20 -20 -20 -20 -20 -20
-20 -20 -20 -20 -20 -20 -20 -20 -20 -20 -20 -20 -20 -20 -20 -20 -20 -20 -20 -20 -20 -20 -20 -20 -20 -20 -20 -20 -20 -20 -20 -20 -20 -20 -20 -20 -20 -20 -20 -20 -20 -20 -20 -20 -20 -20 -20 -20 -20 -20 -20 -20 -20 -20
-20 -20 -20 -20 -20 -20 -20 -20 -20 -20 -20 -20 -20 -20 -20 -20 -20 -20 -20 -20 -20 -20 -20 -20 -20 -20 -20 -20 -20 -20 -20 -20 -20 -20 -20 -20 -20 -20 -20 -20 -20 -20 -20 -20 -20 -20 -20 -20 -20 -20 -20 -20 -20 -20
-20 -20 -20 -20 -3 -20 -20 -20 -20 -20 -20 -19 -20 -20 -20 -20 -20 -20 -20 -20 -20 -20 -20 -20 -20 -20 -20 -20 -20 -20 -20 -20 -20 -20 -20 -20 -20 -20 -20 -20 -20 -20 -20 -20 -20 -20 -20 -20 -20 -20 -20 -20 -20 -20
-20 -20 -20 -20 -20 -20 -20 -20 -7 10 -17 -18 -15 -20 7 -7 20 -20 -20 -20 -20 -20 -20 -20 -20 -20 -20 -20 -20 -20 -20 -20 -20 -20 -20 -20 -20 -20 -20 -20 -20 -20 -20 -20 -20 -20 -20 -20 -20 -20 -20 -20 -20 -20
-20 -20 -20 -20 -20 -20 17 11 -20 -20 -17 16 -3 -18 14 -9 16 -15 -20 -20 -20 -20 -20 -20 -20 -20 -20 -20 -20 -20 -20 -20 -20 -20 -20 -20 -20 -20 -20 -20 -20 -20 -20 -20 -20 -20 -20 -20 -20 -20 -20 -20 -20 -20
-20 -20 -20 -20 -20 -20 -20 -20 -20 -20 -20 -20 -20 -20 -14 -17 16 -20 -20 -20 -20 -20 -20 -20 -20 -20 -20 -20 -20 -20 -20 -20 -20 -20 -20 -20 -20 -20 -20 -20 -20 -20 -20 -20 -20 -20 -20 -20 -20 -20 -20 -20 -20 -20

GFSWCAN_prec_radar_030.txt.gz
Reflectivity
-20 -20 -20 -20 -20 -20 -20 -20 -20 -20 -20 -20 -20 13 11 10 33 35 29 27 23 20 0 8 -17 5 7 1 11 -1 1 0 2 1 14 -6 -18 -19 -20 -20 -20 -20 -20 -20 -20 -20 -20 -20 -20 -20 -20 -20 -20 -20
-20 -20 -20 -20 -20 -20 -20 -20 -20 -20 -20 -10 10 10 8 1 28 28 21 10 20 24 -4 -20 -20 -20 -20 -18 9 7 -18 3 13 17 20 17 18 -10 13 5 -20 -20 -20 -20 -20 -20 -20 -20 -20 -20 -20 -20 -20 -20
-20 -20 -20 -20 -20 -20 -20 -20 -20 -20 -3 -3 12 12 2 -0 17 24 18 12 25 22 4 -10 10 -20 -20 -20 -20 4 5 -9 -20 -20 14 14 14 -19 6 -19 -15 -20 -20 -20 -17 -20 -20 -20 -20 -20 -20 -20 -20 -20
-20 -20 -20 -20 -20 -20 -20 -20 -20 -5 -1 2 13 8 2 15 15 19 11 3 18 22 12 -19 -20 -20 -8 -11 -20 -17 -17 -1 -1 16 19 17 15 -6 -1 -17 -6 -16 -20 -20 -20 -20 -20 -20 -20 -20 -20 -20 -20 -20
-20 -20 -20 -20 -20 -20 -20 -2 -4 -3 9 13 13 9 7 16 0 -9 16 -18 -4 20 11 -7 -20 -12 -13 -4 2 5 6 7 17 22 22 20 13 9 -15 -1 -20 -20 -18 -20 -20 -20 -20 -20 -20 -20 -20 -20 -20 -20
-20 -20 -20 -20 -20 -20 -1 -2 11 13 15 10 10 3 8 12 -19 4 2 1 -9 -9 18 3 -20 5 6 3 23 26 19 19 30 33 28 30 26 34 31 16 4 -9 -20 -20 -20 -20 -20 -20 -20 -20 -20 -20 -20 -20
-20 -20 -20 -2 10 10 12 5 13 12 12 13 -12 -20 -8 -20 -2 2 -16 -13 -17 -5 5 -1 -12 15 17 20 20 28 27 31 32 35 35 34 34 37 35 30 22 30 34 14 -14 3 -14 -15 -20 -20 -20 -20 -20 -20
-20 -20 4 13 14 -16 5 11 -13 8 13 7 -20 -17 -20 -20 -20 3 6 3 -17 -5 -16 4 -6 16 27 29 30 28 33 34 36 35 34 34 34 34 27 27 31 6 14 19 -2 5 -6 -19 -20 -6 -15 -16 15 8
3 11 13 10 8 -18 7 -18 9 13 13 4 -16 -20 -19 -2 4 13 -2 6 -6 -1 27 30 27 31 10 3 20 25 27 33 31 38 37 38 41 38 43 43 16 2 -20 -17 -17 -20 4 2 -20 -20 6 1 3 16
-1 11 10 11 4 -4 -20 -19 4 13 -20 -20 -11 -20 -3 1 12 11 3 -2 4 5 20 19 15 16 2 10 12 16 21 18 32 29 32 38 38 37 42 38 38 25 9 0 -3 3 -20 -20 7 10 -20 -6 17 21
-8 -3 -9 -20 -20 -20 -20 -6 -7 -20 -20 -20 -20 -20 -14 -8 2 5 -17 -5 -4 16 -2 -18 -5 7 7 1 2 10 10 20 16 22 8 29 38 41 34 40 40 43 28 16 27 22 26 17 6 -5 31 40 38 42
0 -17 -20 -20 -20 -20 -20 -20 -20 -20 -20 -19 -20 -20 -20 -12 7 2 -5 1 4 -8 4 -15 -16 13 -8 -13 4 -19 10 -9 18 4 8 29 32 37 39 40 36 37 36 39 35 41 44 22 22 38 33 25 35 46
-20 -20 -20 -20 -20 -20 -20 -20 -16 -20 -20 3 10 -20 -19 -9 -9 -12 4 20 10 -3 -8 -2 15 16 10 5 23 23 -7 2 -18 2 31 14 13 26 33 32 32 33 34 37 37 34 38 41 45 42 39 40 43 34
-20 -20 -20 -20 -20 -20 -20 -20 -20 -20 -11 13 19 13 -20 -19 -20 3 8 6 -20 -20 -20 -11 8 10 1 9 -9 2 -18 12 -3 31 28 15 -20 2 20 23 30 29 27 29 33 31 33 37 34 26 17 23 27 33
-20 -20 -20 -20 -20 -20 -20 -20 -20 -20 -20 -20 -20 -19 -11 -10 -10 -20 -20 -20 -17 -15 -20 -20 -7 -20 -20 5 15 5 -10 16 22 21 21 -17 -20 -15 10 12 4 22 18 10 6 4 -2 11 -4 13 20 24 27 31
-20 -20 -20 -20 -20 -20 -20 -20 -20 -20 -20 -20 -20 -20 -20 -20 -20 -20 -20 -20 -20 -20 -20 -20 -20 -12 -8 -1 -6 5 25 27 20 12 -17 -20 -20 -20 -20 -6 4 -2 -2 -3 11 11 13 13 12 13 7 4 -2 -7
-16 -20 -20 -20 -20 -20 -20 -20 -20 -20 -20 -20 -20 -20 -20 -20 -20 -20 -20 -20 -20 -20 -20 -20 -17 7 -18 -18 12 -0 18 25 8 2 -18 -20 -20 -20 -20 -20 -20 -20 -20 -20 -20 -20 -20 -19 -6 2 6 14 14 14
-20 -20 -20 -20 -20 -20 -20 -20 -20 -20 -20 -20 -20 -20 -20 -20 -20 -20 -20 -20 -20 -20 -20 -20 -20 -20 -2 -0 12 12 6 2 18 -20 -19 -20 -20 -20 -20 -20 -20 -20 -20 -20 -20 -20 -20 -20 -20 -20 -20 -20 -20 -16
-20 -20 -20 -20 -20 -14 -20 -20 -20 -20 -20 -20 -20 -18 -20 -20 -20 -20 -20 -20 -20 -20 -20 -20 -20 -7 -14 -20 -20 -9 -20 -8 -5 -20 -20 -20 -20 -20 -20 -20 -20 -20 -20 -20 -20 -20 -20 -20 -20 -20 -20 -20 -20 -20
-20 -20 -20 -20 -20 -20 -20 -20 -20 -20 -20 -20 -20 -20 -20 -20 -20 -20 -20 -20 -20 -20 -20 -20 -20 -20 -20 -20 -20 -20 -20 -20 -20 -14 -20 -20 -20 -20 -20 -20 -20 -20 -20 -20 -20 -20 -20 -20 -20 -20 -20 -20 -20 -20
-20 -20 -20 -20 -20 -20 -20 -20 -20 -20 -20 -20 -20 3 4 -20 -20 -20 -20 -20 -20 -20 -20 -20 -20 -20 -20 -20 -20 -20 -20 -20 -20 -20 -20 -20 -20 -20 -20 -20 -20 -20 -20 -20 -20 -20 -20 -20 -20 -20 -20 -20 -20 -20
-20 -20 -20 -20 -20 -20 -20 -20 -20 -20 -20 -20 -17 -15 -20 -20 -20 -20 -20 -20 -20 -19 -20 -20 -20 -20 -20 -20 -20 -20 -20 -20 -20 -20 -20 -20 -20 -20 -20 -20 -20 -20 -20 -20 -20 -20 -20 -20 -20 -20 -20 -20 -20 -20
-20 -16 -20 -20 -20 10 11 -20 -10 -20 -20 -20 -20 -20 1 7 -17 -20 -20 -20 -16 -20 -20 -20 -20 -20 -20 -20 -20 -20 -20 -20 -20 -20 -20 -20 -20 -20 -20 -20 -20 -20 -20 -20 -20 -20 -20 -20 -20 -20 -20 -20 -20 -20
-20 -20 -20 -20 -15 7 -20 -20 -20 -20 -20 -20 -20 -20 1 -1 -20 -20 -20 -20 -20 -20 -20 -20 -20 -20 -20 -20 -20 -20 -20 -20 -20 -20 -20 -20 -20 -20 -20 -20 -20 -20 -20 -20 -20 -20 -20 -20 -20 -20 -20 -20 -20 -20
-15 -4 9 13 -20 -20 -20 -20 -20 -20 -20 -20 -20 -20 -6 -20 -20 -20 -20 -20 -20 -20 -20 -20 -20 -20 -20 -20 -20 -20 -20 -20 -20 -20 -20 -20 -20 -20 -20 -20 -20 -20 -20 -20 -20 -0 -12 -20 -20 -20 -20 -20 -20 -20
-14 -15 13 -20 -20 -20 -20 -20 -20 -20 -20 -20 -20 -20 -20 -20 -20 -20 -20 -20 -20 -20 -20 -20 -20 -20 -20 -20 -20 -20 -20 -20 -20 -20 -20 -20 -20 -20 -20 -20 -20 -20 -20 -20 -20 -20 -15 -8 -20 -7 -18 -20 -20 -20
-13 -20 -20 -20 -20 -20 -20 -20 -20 -20 -20 -20 -20 -20 -20 -20 -20 -20 -20 -20 -20 -20 -20 -20 -20 -20 -20 -20 -20 -20 -20 -20 -20 -20 -20 -20 -20 -20 -20 -20 -20 -20 -20 -20 -20 -20 -20 -20 -20 -20 -20 -20 -20 -20
-20 -20 -20 -20 -20 -20 -20 -20 -20 -20 -20 -20 -20 -20 -20 -20 -12 -20 -20 -20 -20 -20 -20 -20 -20 -20 -20 -20 -20 -20 -20 -20 -20 -20 -20 -20 -20 -20 -20 -20 -20 -20 -20 -20 -20 -20 -20 -20 -20 -20 -20 -20 -20 -20
-20 -20 -20 -20 -20 -20 -20 -20 -20 -20 -20 -20 -20 -20 -20 -20 -20 -20 10 -17 16 5 6 -20 -20 -20 -20 -20 -20 -20 -20 -20 -20 -20 -20 -20 -20 -20 -20 -20 -0 -1 -20 -20 -20 -20 -20 -20 -20 -20 -20 -20 -20 -20
-20 -20 -20 -20 -20 -20 -20 -20 -20 -20 -20 -20 -20 -20 -20 -20 -20 -20 -20 -20 -12 3 -17 -20 -20 -20 -20 -20 -20 -20 -20 -20 -20 -20 -20 -20 -20 -20 -20 -20 -20 -20 -20 -20 -20 -20 -20 -20 -20 -20 -20 -20 -20 -20
-20 -20 -20 -20 -20 -20 -20 -20 -20 -20 -20 -20 -20 -20 -20 -20 -15 -20 -20 -20 -20 -20 -20 -20 -20 -20 -20 -20 -20 -20 -20 -20 -20 -20 -20 -20 -20 -20 -20 -20 -20 -20 -20 -20 -20 -20 -20 -20 -20 -20 -20 -20 -20 -20
-20 -20 -20 -20 -20 -20 -20 -20 -20 -20 -20 -20 -20 -20 -20 -20 -20 -20 -20 -20 -20 -20 -20 -20 -20 -20 -20 -20 -20 -20 -20 -20 -20 -20 -20 -20 -20 -20 -20 -20 -20 -20 -20 -20 -20 -20 -20 -20 -20 -20 -20 -20 -20 -18
-20 -20 -20 -20 -20 -20 -20 -20 -20 -20 -20 -20 -20 -20 -20 -20 25 -20 -20 -20 -20 -20 -20 -20 -20 -20 -20 -20 -20 -20 -20 -20 -20 -20 -20 -20 -20 -20 -20 -20 -20 -20 -20 -20 -20 -20 3 -13 -18 -20 -12 -4 -20 -20

GFSWCAN_prec_radar_033.txt.gz
Reflectivity
-14 -20 -20 -20 -20 -20 -20 -20 -20 -20 -20 -17 9 14 8 10 -4 22 19 22 12 10 -5 -18 -14 13 5 12 16 7 -5 -0 -20 16 19 19 -18 -4 -20 -20 -8 -7 -20 -20 -20 -20 -20 -15 -20 -20 -20 -20 -20 -20
-20 -20 -20 -20 -20 -20 -20 -20 -20 -11 5 10 15 12 11 10 6 20 18 -1 -5 21 3 -11 -14 -8 3 5 13 6 -16 -16 17 21 21 17 14 -16 -3 -10 -20 -18 -4 -9 -20 -20 -20 -20 -20 -20 -20 -20 -20 -20
-20 -20 -20 -20 -20 -20 -20 -20 -3 11 8 13 11 7 12 15 10 19 16 -9 23 20 10 -11 -5 9 9 3 10 11 5 -10 -16 -20 6 11 13 -19 8 -11 -4 -16 -20 -20 -20 -20 -20 -20 -20 -20 -20 -20 -20 -20
-20 -20 -20 -20 -20 -20 -13 8 10 12 11 13 4 8 13 16 3 7 -12 -20 7 15 14 -7 -2 10 4 10 6 6 7 17 14 9 17 13 9 -15 -2 -20 11 -9 7 -20 -20 -20 -20 -20 -20 -20 -20 -20 -20 -20
-20 -20 -20 -20 -20 -3 3 2 1 11 12 8 -15 14 16 -2 -20 -7 3 -18 -17 5 5 -9 18 16 20 15 12 23 22 24 26 26 23 20 19 18 -0 -20 -20 -20 -20 -20 -18 -20 -20 -20 -20 -20 -20 -20 -20 -20
-20 -20 -20 -6 -13 -20 -2 11 9 9 10 0 6 7 -2 -20 -20 17 13 -20 16 4 12 8 5 21 23 22 26 30 29 32 31 33 31 30 25 33 32 18 19 23 12 -14 -20 -20 3 2 -20 -20 -20 -20 -20 -20
-20 -20 8 -7 -10 -17 7 13 11 6 -3 1 -10 -20 -20 -20 -4 -2 -1 -9 -20 0 8 1 19 16 29 30 26 27 28 31 32 36 35 35 32 34 29 27 20 24 30 24 -3 -19 -20 -20 -20 -20 -20 -20 -20 -20
-20 3 4 8 -9 -20 1 -4 0 8 11 -3 -20 -20 -20 -20 -20 9 0 -17 7 7 7 15 -6 14 8 8 17 11 13 23 25 30 32 35 34 34 28 34 24 5 7 -17 -15 -20 -20 -20 -20 -20 -20 -20 -20 -20
-1 5 4 5 -20 -20 -20 -16 0 11 7 -20 -20 -20 -19 -2 3 10 -20 -20 -15 -15 5 -2 7 14 17 8 11 9 19 29 24 23 30 37 41 37 40 40 38 12 12 -4 -20 9 -6 -2 -18 -20 -20 -20 -14 -20
-13 5 -5 -20 -20 -20 -20 -18 -4 -16 -20 -20 -20 -20 0 0 -20 -18 5 2 -5 -2 10 -0 3 7 15 11 3 14 24 17 30 24 22 33 38 36 40 35 28 23 26 5 -19 -0 -2 -1 -7 -20 -20 -20 -20 -6
-20 -20 -20 -20 -20 -20 -20 -20 -5 -20 -20 -20 -20 -10 -20 -20 2 3 4 -20 -20 -18 -15 -6 -19 -17 -16 -7 4 3 -12 14 21 8 6 21 35 31 38 38 41 40 33 28 27 18 -5 -15 -13 -19 8 22 19 -11
-20 -20 -20 -20 -20 -20 -20 -20 -20 -7 -20 -16 -20 -20 -6 -17 -5 -11 2 -12 -8 17 13 10 -4 -15 -1 -11 1 9 24 2 16 -1 14 31 28 28 29 34 39 41 40 39 39 38 37 26 28 31 33 28 -9 16
-20 -20 -20 -20 -20 -20 -20 -20 -20 -19 -20 -16 -20 0 -18 -20 -1 -3 -1 -8 -16 -20 -20 -6 25 -15 14 -3 23 17 9 19 -19 2 33 19 18 6 16 14 21 31 38 41 39 38 42 34 33 32 36 28 36 41
-20 -20 -20 -20 -20 -20 -20 -20 -20 -20 -20 -20 -20 14 -7 2 -13 -14 -18 -16 -20 -20 -20 -12 -17 19 -20 9 2 20 -17 -20 13 11 29 21 20 13 2 8 15 16 17 22 31 38 31 35 38 41 40 37 36 36
-20 -20 -20 -20 -20 -20 -20 -20 -20 -20 -20 -20 -20 9 -11 -20 -20 -20 -20 -20 -20 -20 -20 -14 -5 -20 -20 -7 3 -1 13 19 21 19 14 1 17 6 7 -11 3 -6 9 7 12 17 30 36 38 38 38 36 35 35
-20 -16 -13 -20 -20 -20 -20 -20 -20 -20 -20 -20 -20 -20 -20 -20 -20 -20 -20 -20 -20 -20 4 9 -20 -3 -20 -20 -13 6 15 22 9 12 -0 -20 7 18 18 -15 -17 -4 -6 -19 11 10 10 18 14 24 25 23 25 31
2 -20 -20 -20 -20 -20 -20 -20 -20 -20 -20 -20 -20 -20 -20 -20 -20 -20 -20 -20 -20 -20 -20 -20 -10 2 -19 1 13 15 23 18 -15 17 -20 -20 20 15 -4 -20 -20 -20 -20 -19 -17 -19 -18 5 8 10 12 14 16 14
-20 -20 -20 -20 -20 -20 -20 -20 -20 -20 -20 -20 -20 -20 -20 -20 -20 -20 -20 -20 -20 -20 -20 -20 -20 -20 -7 1 1 -1 -20 -20 -20 1 -20 -7 7 -20 -20 -20 -20 -20 -20 -20 -20 -20 -20 -20 -20 -9 -5 -13 3 -4
-20 -20 -20 -20 -19 -14 -20 -20 -20 -20 -20 -20 -20 -20 -20 -20 -20 -20 -20 -20 -20 -20 -20 -20 -20 -0 -20 -20 -20 -20 -20 -20 -12 -16 -18 -20 -20 -20 -20 -20 -20 -20 -20 -20 -20 -20 -20 -20 -20 -20 -20 -20 -20 -20
-20 -20 -20 -20 -11 -20 -20 -20 -20 -20 -20 -20 -20 -20 -14 -20 -20 -20 -20 -20 -20 -20 -20 -20 -20 -20 -20 -20 -20 -20 -20 -20 -20 -20 -20 -20 -20 -20 -20 -20 -20 -20 -20 -20 -20 -20 -20 -20 -20 -20 -20 -20 -20 -20
-3 -20 -20 -20 -20 -20 -20 -20 -20 -20 -20 -0 -20 -19 -20 -20 -20 -20 -20 -20 -20 -20 -20 -20 -20 -20 -20 -20 -20 -20 -20 -20 -20 -20 -20 -20 -20 -20 -20 -20 -20 -20 -20 -20 -20 -20 -20 -20 -20 -20 -20 -20 -20 -20
-20 -20 -20 -20 -20 -20 -20 -20 -20 -20 -20 -20 -20 -20 -20 -20 -20 -20 -20 -20 -20 -20 -20 -20 -20 -20 -20 -20 -20 -20 -20 -20 -20 -20 -20 -20 -20 -20 -20 -20 -20 -20 -20 -20 -20 -20 -20 -20 -20 -20 -20 -20 -20 -20
-20 -14 -20 -20 -20 6 10 -20 -20 -20 -20 -20 -20 -20 -19 -20 -20 -20 -20 -20 -20 -20 -20 -20 -20 -20 -20 -20 -20 -20 -20 -20 -20 -20 -20 -20 -20 -20 -10 -20 -20 -20 -20 -20 -20 -17 -20 -20 -20 -20 -20 -20 -20 -20
9 -20 -20 -20 -17 -3 -20 -20 -20 -20 -20 -20 -20 -20 -20 -20 -20 -20 -20 -20 -20 -20 -20 -20 -20 -20 -20 -20 -20 -20 -20 -20 -20 -20 -20 -20 -20 -20 -20 -20 -4 -20 -20 -20 -5 -20 -20 -20 -20 -20 -20 -20 -20 -20
5 -1 10 18 -20 -20 -20 -20 -20 -20 -20 -20 -20 -20 -20 -20 -20 -20 -20 -20 -20 -20 -20 -20 -20 -20 -20 -20 -20 -20 -20 -20 -20 -20 -20 -20 -20 -20 -20 -6 -20 -20 -20 -20 -20 -20 -20 -20 -20 -20 -20 -20 -20 -20
17 -14 5 -20 -20 -20 -20 -20 -20 -20 -20 -20 -20 -20 -20 -20 -20 -20 -20 -20 -20 -20 -20 -20 -17 -13 -20 -20 -20 -20 -20 -20 -20 -20 -20 -20 -20 -20 -20 -20 -20 -20 -20 -20 -20 -20 -20 -20 -20 -20 -20 -20 -20 -20
11 -20 -20 -20 -20 -20 -20 -20 -20 -20 -20 -20 -20 -18 -7 -1 -5 1 -20 -20 -20 -11 16 -4 -16 -17 -20 -20 -20 -20 -20 -20 -20 -20 -20 -20 -20 -20 -20 -20 -20 -20 -20 -20 -20 -20 -20 -20 -20 -20 -20 -20 -20 -20
-20 -20 -20 -20 -20 -20 -20 -17 -20 -20 -20 -20 -20 11 26 -8 -15 -10 -20 -20 -20 -20 -17 -8 -20 -20 -20 -20 -20 -20 -20 -20 -20 -20 -20 -20 -20 -20 -20 -20 -20 -20 -20 -20 -20 -20 -20 -20 -20 -20 -20 -20 -20 -20
-20 -20 -20 -18 -8 -20 -0 3 -15 26 14 -20 -1 6 -8 -19 -20 -20 -20 -20 -20 -20 12 24 -18 -20 -20 -20 -20 -20 -20 -20 -20 -20 -20 -20 -20 -20 -20 -20 -20 -20 -20 -20 -20 -20 -20 -20 -20 -20 -20 -17 -20 -20
21 -5 -20 -20 -7 -20 -14 18 -20 -20 -20 -20 -20 -20 -19 15 -12 -19 -14 -20 -20 -20 -20 -20 -20 -20 -20 -20 -20 -20 -20 -20 -20 -20 -20 -20 -20 -20 -20 -20 -20 -20 -20 -20 -15 -7 -20 -20 -20 -20 -19 -20 -20 -13
-20 -20 -20 -20 8 12 2 -20 -20 -20 -20 -20 -20 -20 -20 -20 -14 7 -18 -20 -19 -20 -20 -20 -20 -20 -20 -20 -20 -20 -20 -20 -20 -20 -20 -20 -20 -20 -20 -20 -20 -20 -20 -20 -20 -20 -20 -20 -20 -20 -20 -20 -20 -20
-20 -20 -20 -20 -20 -18 -20 -20 -20 -20 -20 -20 -18 -20 -20 -20 30 -3 -20 -20 -20 -20 -20 -20 -20 -20 -20 -20 -20 -20 -20 -20 -20 -20 -20 -20 -20 -20 -20 -20 -20 -20 -20 -20 -20 -20 -20 -20 -20 -20 -19 0 -20 -20
-20 -20 -20 -20 -20 -17 6 -20 -20 -20 -20 -20 -20 -20 -20 -20 23 -20 -20 -17 -20 -20 -20 -20 -20 -20 -20 -20 -20 -20 -20 -20 -20 -20 -20 -20 -20 -20 -20 -20 -20 -20 -20 -20 -19 -20 -16 11 11 -14 -7 -20 -14 -20